Location: Kennington
(51.1500°N, 0.8833°E)
Time: 11:28:00
(UTC+00:00)

USA 234 - Pass Details

Date: 21 September 2020
Orbit: 1102 x 1106 km, 123.0° (Epoch: 16 October)

Event Time Altitude Azimuth Distance (km) Brightness Sun altitude
Rises 00:00:53 0° 78° (ENE) 3,922 6.3 -38.2°
Reaches altitude 10° 00:03:25 10° 74° (ENE) 2,964 5.7 -38.2°
Enters shadow 00:07:54 42° 47° (NE) 1,534 4.2 -38.1°
Exits shadow 00:17:13 - 283° (WNW) 3,404 5.9 -37.9°
Sets 00:18:35 0° 282° (WNW) 3,925 6.2 -37.9°
